This demonstration page uses our WeatherBlox Daily Observations layout. Learn more.

Left ArrowRight Arrow

Hourly Observations for April 10, 2016

Temp ( °F °C ) Dew Point ( °F °C ) Humidity (%) Winds ( mph kmh ) Pressure ( in mb ) Visibility ( mi km ) Precip ( " mm )
12:51 am 00:51 Clear 54 12.2 34 1.1 47 47 SE 5 7 29.77 1008 10 16 0.00 0.00
1:51 am 01:51 Clear 55 12.8 35 1.7 47 47 S 5 7 29.76 1008 10 16 0.00 0.00
2:51 am 02:51 Clear 50 10 33 0.6 52 52 Calm 29.76 1008 10 16 0.00 0.00
3:51 am 03:51 Clear 50 10 33 0.6 52 52 ESE 3 6 29.75 1007 10 16 0.00 0.00
4:51 am 04:51 Clear 51 10.6 38 3.3 61 61 SE 8 13 29.75 1007 10 16 0.00 0.00
5:51 am 05:51 Clear 50 10 38 3.3 63 63 ESE 7 11 29.76 1008 10 16 0.00 0.00
6:51 am 06:51 Sunny 58 14.4 36 2.2 44 44 NNW 6 9 29.79 1009 10 16 0.00 0.00
7:51 am 07:51 Sunny 63 17.2 37 2.8 38 38 NW 3 6 29.80 1009 10 16 0.00 0.00
8:51 am 08:51 Sunny 64 17.8 35 1.7 34 34 Calm 29.81 1009 10 16 0.00 0.00
9:51 am 09:51 Sunny 68 20 32 0 26 26 VRB 3 6 29.80 1009 10 16 0.00 0.00
10:51 am 10:51 Mostly Sunny 69 20.6 30 -1.1 23 23 SE 6 9 29.80 1009 10 16 0.00 0.00
11:51 am 11:51 Mostly Cloudy 71 21.7 31 -0.6 23 23 undefined N/A 29.78 1008 10 16 0.00 0.00
12:51 pm 12:51 Mostly Cloudy 71 21.7 30 -1.1 22 22 W 3 6 29.75 1008 10 16 0.00 0.00
1:51 pm 13:51 Cloudy 71 21.7 29 -1.7 21 21 WSW 8 13 29.75 1007 10 16 0.00 0.00
2:51 pm 14:51 Mostly Cloudy 65 18.3 38 3.3 37 37 NNW 20 31 29.79 1009 10 16 0.00 0.00
3:23 pm 15:23 Windy with Storms Likely 63 17.2 38 3.3 40 40 NW 22 35 29.80 1009 10 16 0.00 0.03
3:51 pm 15:51 Cloudy with Thunderstorms 54 12.2 48 8.9 80 80 WNW 20 31 29.87 1012 5 8 0.01 0.25
4:00 pm 16:00 Cloudy with Light Rain 53 11.7 49 9.4 86 86 NW 18 30 29.91 1013 6 10 0.01 0.25
4:09 pm 16:09 Cloudy with Nearby Thunderstorms 53 11.7 50 10 89 89 NNW 14 22 29.91 1013 10 16 0.01 0.25
4:24 pm 16:24 Cloudy with Light Rain 54 12.2 50 10 87 87 N 16 26 29.88 1012 10 16 0.01 0.25
4:51 pm 16:51 Cloudy 57 13.9 46 7.8 67 67 N 13 20 29.85 1011 10 16 0.01 0.25
5:51 pm 17:51 Cloudy with Light Rain 53 11.7 43 6.1 69 69 NNW 16 26 29.89 1012 10 16 0.00 0.03
6:51 pm 18:51 Cloudy with Heavy Rain 50 10 48 8.9 93 93 WNW 13 20 29.93 1014 3 5 0.22 5.59
7:51 pm 19:51 Cloudy with Light Rain 50 10 47 8.3 89 89 NW 7 11 29.94 1014 10 16 0.20 5.08
8:51 pm 20:51 Mostly Cloudy 50 10 48 8.9 93 93 NNE 3 6 29.95 1014 10 16 0.03 0.76
9:51 pm 21:51 Clear 49 9.4 47 8.3 93 93 SW 9 15 29.96 1015 10 16 0.00 0.00
10:51 pm 22:51 Mostly Cloudy 48 8.9 46 7.8 93 93 Calm 29.98 1015 10 16 0.00 0.00
11:51 pm 23:51 Cloudy with Light Rain 49 9.4 47 8.3 93 93 Calm 29.99 1016 10 16 0.00 0.03

Powered by AerisWeather